Date String (YYYY-MM-DD hh:mm:ss) UTC,Instrument flags,Ambient pressure (hPa),Sample flow (lpm),Bypass flow (lpm),Sample temperature (°C),Ambient temperature (°C),ASC tube jacket temperature (°C),LED temperature (°C),Box temperature (°C),Sample RH (%),Span deviation,Mass concentration (μg/m³),Mass concentration (μg/m³),Mass concentration (μg/m³)
DateTimeUTC,F1_M11,P_M11,Q1_M11,Q2_M11,T1_M11,T2_M11,T3_M11,T4_M11,T5_M11,U1_M11,ZSPAN_M11,X0_M11,X2_M11,X1_M11
2022-01-17 04:00:00,,0827.1,4.99,0.00,24.0,23.3,00.0,33.1,25.7,09.4,0000.0,0004.53,0002.96,0002.58
2022-01-17 04:01:00,,0827.1,5.02,0.00,24.0,23.3,00.0,33.1,25.7,09.4,0000.0,0004.82,0002.99,0002.59
2022-01-17 04:02:00,,0827.1,5.00,0.00,24.0,23.3,00.0,33.1,25.7,09.4,0000.0,0005.46,0003.00,0002.60
2022-01-17 04:03:00,,0827.2,5.00,0.00,24.0,23.2,00.0,33.1,25.7,09.4,0000.0,0006.09,0003.03,0002.62
2022-01-17 04:04:00,,0827.1,5.01,0.00,24.0,23.2,00.0,33.1,25.7,09.4,0000.0,0006.21,0003.07,0002.63
2022-01-17 04:05:00,,0827.1,5.01,0.00,24.0,23.2,00.0,33.1,25.7,09.4,0000.0,0006.33,0003.09,0002.65
2022-01-17 04:06:00,,0827.0,4.99,0.00,24.0,23.2,00.0,33.1,25.7,09.4,0000.0,0006.36,0003.11,0002.64
2022-01-17 04:07:00,,0827.0,5.03,0.00,23.9,23.2,00.0,33.1,25.6,09.4,0000.0,0006.90,0003.05,0002.63
2022-01-17 04:08:00,,0827.0,5.00,0.00,23.9,23.2,00.0,33.0,25.6,09.4,0000.0,0006.94,0003.01,0002.62
2022-01-17 04:09:00,,0827.0,4.99,0.00,23.9,23.2,00.0,33.0,25.6,09.4,0000.0,0006.86,0002.97,0002.61
2022-01-17 04:10:00,,0827.0,5.00,0.00,23.9,23.2,00.0,33.0,25.6,09.5,0000.0,0006.79,0002.97,0002.58
2022-01-17 04:11:00,,0827.0,5.01,0.00,23.9,23.2,00.0,33.0,25.6,09.5,0000.0,0006.73,0002.96,0002.58
2022-01-17 04:12:00,,0827.0,4.98,0.00,23.9,23.1,00.0,33.0,25.6,09.5,0000.0,0006.47,0002.97,0002.58
2022-01-17 04:13:00,,0827.0,5.01,0.00,23.9,23.1,00.0,33.0,25.6,09.5,0000.0,0005.95,0003.01,0002.57
2022-01-17 04:14:00,,0827.0,4.99,0.00,23.9,23.1,00.0,33.0,25.6,09.5,0000.0,0005.42,0003.03,0002.57
2022-01-17 04:15:00,,0827.0,5.01,0.00,23.9,23.1,00.0,33.0,25.6,09.5,0000.0,0005.37,0003.02,0002.59
2022-01-17 04:16:00,,0826.9,4.99,0.00,23.8,23.1,00.0,33.0,25.5,09.5,0000.0,0005.45,0003.06,0002.61
2022-01-17 04:17:00,,0826.9,4.99,0.00,23.8,23.1,00.0,32.9,25.5,09.5,0000.0,0005.68,0003.09,0002.62
2022-01-17 04:18:00,,0826.9,5.02,0.00,23.8,23.1,00.0,32.9,25.5,09.5,0000.0,0005.07,0003.15,0002.63
2022-01-17 04:19:00,,0826.9,5.00,0.00,23.8,23.0,00.0,32.9,25.5,09.5,0000.0,0004.95,0003.19,0002.64
2022-01-17 04:20:00,,0826.9,5.01,0.00,23.8,23.0,00.0,32.9,25.5,09.5,0000.0,0005.34,0003.22,0002.65
2022-01-17 04:21:00,,0826.9,4.99,0.00,23.8,23.0,00.0,32.9,25.5,09.5,0000.0,0005.48,0003.23,0002.67
2022-01-17 04:22:00,,0826.9,5.01,0.00,23.8,23.0,00.0,32.9,25.5,09.6,0000.0,0006.19,0003.25,0002.67
2022-01-17 04:23:00,,0826.9,4.99,0.00,23.8,23.0,00.0,32.9,25.5,09.6,0000.0,0006.92,0003.24,0002.67
2022-01-17 04:24:00,,0826.9,4.98,0.00,23.7,23.0,00.0,32.9,25.5,09.6,0000.0,0007.45,0003.23,0002.67
2022-01-17 04:25:00,,0826.9,5.01,0.00,23.7,23.0,00.0,32.8,25.5,09.6,0000.0,0007.55,0003.25,0002.69
2022-01-17 04:26:00,,0826.9,4.99,0.00,23.7,23.0,00.0,32.8,25.5,09.6,0000.0,0007.53,0003.24,0002.69
2022-01-17 04:27:00,,0826.9,5.01,0.00,23.7,23.0,00.0,32.8,25.5,09.6,0000.0,0007.38,0003.20,0002.67
2022-01-17 04:28:00,,0827.0,4.99,0.00,23.7,23.0,00.0,32.8,25.4,09.6,0000.0,0007.19,0003.18,0002.67
2022-01-17 04:29:00,,0826.9,5.00,0.00,23.7,23.0,00.0,32.8,25.4,09.6,0000.0,0007.03,0003.15,0002.66
2022-01-17 04:30:00,,0826.8,5.01,0.00,23.7,22.9,00.0,32.8,25.4,09.6,0000.0,0006.84,0003.13,0002.65
2022-01-17 04:31:00,,0826.9,4.99,0.00,23.7,22.9,00.0,32.8,25.4,09.6,0000.0,0007.00,0003.10,0002.65
2022-01-17 04:32:00,,0826.9,5.00,0.00,23.6,22.9,00.0,32.8,25.4,09.6,0000.0,0007.24,0003.09,0002.64
2022-01-17 04:33:00,,0826.8,5.00,0.00,23.6,22.9,00.0,32.8,25.4,09.6,0000.0,0006.83,0003.12,0002.64
2022-01-17 04:34:00,,0826.8,5.00,0.00,23.6,22.9,00.0,32.7,25.4,09.6,0000.0,0006.17,0003.12,0002.64
2022-01-17 04:35:00,,0826.8,5.00,0.00,23.6,22.9,00.0,32.7,25.4,09.6,0000.0,0005.60,0003.12,0002.65
2022-01-17 04:36:00,,0826.8,5.00,0.00,23.6,22.9,00.0,32.7,25.4,09.6,0000.0,0005.71,0003.09,0002.63
2022-01-17 04:37:00,,0826.8,4.99,0.00,23.6,22.9,00.0,32.7,25.3,09.6,0000.0,0005.71,0003.11,0002.65
2022-01-17 04:38:00,,0826.8,5.02,0.00,23.6,22.9,00.0,32.7,25.3,09.7,0000.0,0005.83,0003.13,0002.66
2022-01-17 04:39:00,,0826.8,4.99,0.00,23.6,22.8,00.0,32.7,25.3,09.7,0000.0,0005.92,0003.15,0002.67
2022-01-17 04:40:00,,0826.8,5.00,0.00,23.6,22.8,00.0,32.7,25.3,09.7,0000.0,0005.90,0003.13,0002.67
2022-01-17 04:41:00,,0826.8,5.02,0.00,23.6,22.8,00.0,32.7,25.2,09.7,0000.0,0005.90,0003.13,0002.68
2022-01-17 04:42:00,,0826.8,4.98,0.00,23.5,22.8,00.0,32.7,25.2,09.7,0000.0,0005.44,0003.15,0002.70
2022-01-17 04:43:00,,0826.8,5.01,0.00,23.5,22.8,00.0,32.7,25.2,09.7,0000.0,0005.79,0003.13,0002.70
2022-01-17 04:44:00,,0826.8,4.99,0.00,23.5,22.8,00.0,32.6,25.2,09.7,0000.0,0005.78,0003.13,0002.72
2022-01-17 04:45:00,,0826.8,5.01,0.00,23.5,22.7,00.0,32.6,25.2,09.7,0000.0,0006.71,0003.13,0002.72
2022-01-17 04:46:00,,0826.8,4.99,0.00,23.5,22.7,00.0,32.6,25.2,09.7,0000.0,0007.92,0003.12,0002.73
2022-01-17 04:47:00,,0826.7,4.99,0.00,23.5,22.7,00.0,32.6,25.1,09.7,0000.0,0007.89,0003.14,0002.75
2022-01-17 04:48:00,,0826.7,5.00,0.00,23.5,22.7,00.0,32.6,25.1,09.7,0000.0,0007.95,0003.16,0002.75
2022-01-17 04:49:00,,0826.7,5.01,0.00,23.4,22.7,00.0,32.6,25.1,09.7,0000.0,0007.95,0003.17,0002.76
2022-01-17 04:50:00,,0826.7,4.99,0.00,23.4,22.7,00.0,32.6,25.1,09.8,0000.0,0007.96,0003.19,0002.78
2022-01-17 04:51:00,,0826.7,4.99,0.00,23.4,22.7,00.0,32.6,25.1,09.7,0000.0,0007.98,0003.20,0002.78
2022-01-17 04:52:00,,0826.7,5.01,0.00,23.4,22.6,00.0,32.5,25.1,09.7,0000.0,0008.24,0003.18,0002.77
2022-01-17 04:53:00,,0826.7,5.00,0.00,23.4,22.6,00.0,32.5,25.1,09.8,0000.0,0008.24,0003.15,0002.75
2022-01-17 04:54:00,,0826.7,5.00,0.00,23.4,22.6,00.0,32.5,25.1,09.8,0000.0,0008.18,0003.18,0002.75
2022-01-17 04:55:00,,0826.7,5.01,0.00,23.4,22.6,00.0,32.5,25.1,09.8,0000.0,0007.95,0003.18,0002.74
2022-01-17 04:56:00,,0826.7,4.99,0.00,23.4,22.6,00.0,32.5,25.1,09.8,0000.0,0007.74,0003.21,0002.74
2022-01-17 04:57:00,,0826.7,5.00,0.00,23.4,22.6,00.0,32.5,25.1,09.8,0000.0,0006.15,0003.23,0002.74
2022-01-17 04:58:00,,0826.7,5.00,0.00,23.3,22.6,00.0,32.5,25.1,09.8,0000.0,0006.10,0003.24,0002.73
2022-01-17 04:59:00,,0826.7,5.00,0.00,23.3,22.5,00.0,32.4,25.0,09.8,0000.0,0006.45,0003.22,0002.73
